Flag for Finland Weather past 2 weeks in Jakobstad, Finland

Now
37 °F

Clear.


Feels Like: 31 °F
Forecast: 46 / 53 °F
Wind: 8 mph from South

Location: Kruunupyy

Current Time: Oct 1, 2014 at 11:30:14 PM

Latest Report: Oct 1, 2014 at 10:50 PM


Visibility: 10 mi

Pressure: 30.30 "Hg

Humidity: 100%

Dew point: 37 °F

Location of JakobstadLocation

Historic Weather in Jakobstad — Graph

°F

Jakobstad temperature yesterday

Maximum temperature yesterday: 50 °F (at 12:20 AM)
Minimum temperature yesterday: 28 °F (at 11:20 PM)
Average temperature yesterday: 44 °F

Past Weeks' High & Low Weather Summary

 TemperatureHumidityPressure
High64 °F (Sep 17, 3:20 PM)100% (Sep 16, 10:20 PM)30.45 "Hg (Sep 16, 10:20 PM)
Low25 °F (Oct 1, 3:50 AM)39% (Sep 22, 2:50 PM)29.21 "Hg (Sep 26, 9:20 PM)
Average47 °F83%29.85 "Hg
* Reported Sep 16 10:20 PM — Oct 1 10:20 PM, Jakobstad, Weather by CustomWeather, © 2014

Note: Actual official high and low records may vary slightly from our data, if they occured in-between our weather recording intervals... More about our weather records

Advertising

Jakobstad weather history for previous 24 hours

 ConditionsComfort  
Time TempWeatherWind HumidityBarometerVisibility
10:20 PM
Oct 1
37 °FClear.3 mph100%30.33 "Hg10 mi
9:50 PM37 °FClear.3 mph100%30.33 "Hg10 mi
9:20 PM37 °FClear.2 mph93%30.33 "Hg10 mi
8:50 PM43 °FClear.3 mph87%30.33 "Hg10 mi
8:20 PM41 °FClear.7 mph93%30.33 "Hg10 mi
7:50 PM41 °FSunny.6 mph93%30.33 "Hg10 mi
7:20 PM43 °FSunny.5 mph87%30.36 "Hg10 mi
6:50 PM45 °FSunny.3 mph81%30.36 "Hg10 mi
6:20 PM46 °FSunny.5 mph76%30.36 "Hg10 mi
5:50 PM48 °FSunny.7 mph71%30.36 "Hg10 mi
5:20 PM50 °FSunny.8 mph67%30.36 "Hg10 mi
4:50 PM50 °FSunny.10 mph67%30.39 "Hg10 mi
4:20 PM50 °FPassing clouds.10 mph71%30.39 "HgN/A
3:50 PM50 °FPassing clouds.10 mph67%30.39 "HgN/A
3:20 PM50 °FSunny.10 mph67%30.39 "HgN/A
2:50 PM50 °FPassing clouds.12 mph67%30.42 "HgN/A
2:20 PM48 °FPassing clouds.12 mph71%30.42 "HgN/A
1:50 PM46 °FPassing clouds.9 mph76%30.42 "HgN/A
1:20 PM46 °FPassing clouds.8 mph76%30.45 "HgN/A
12:50 PM45 °FSunny.8 mph81%30.45 "Hg10 mi
12:20 PM45 °FSunny.8 mph81%30.45 "Hg10 mi
11:50 AM41 °FSunny.6 mph87%30.45 "Hg10 mi
11:20 AM39 °FSunny.7 mph93%30.45 "Hg10 mi
10:50 AM37 °FSunny.7 mph93%30.45 "Hg10 mi
10:20 AM36 °FPassing clouds.6 mph93%30.45 "HgN/A
9:50 AM34 °FSunny.3 mph100%30.45 "Hg10 mi
9:20 AM30 °FSunny.2 mph100%30.45 "Hg10 mi
8:50 AM28 °FSunny.2 mph100%30.45 "Hg10 mi
8:20 AM27 °FClear.No wind100%30.45 "Hg10 mi
7:50 AM27 °FClear.No wind100%30.45 "Hg10 mi
7:20 AM25 °FClear.No wind100%30.45 "Hg10 mi
6:50 AM25 °FClear.No wind93%30.45 "Hg10 mi
6:20 AM25 °FClear.No wind100%30.45 "Hg10 mi
5:50 AM25 °FClear.No wind100%30.45 "Hg10 mi
5:20 AM25 °FClear.No wind100%30.45 "Hg10 mi
4:50 AM25 °FClear.No wind100%30.45 "Hg10 mi
4:20 AM25 °FClear.No wind100%30.42 "Hg10 mi
3:50 AM25 °FClear.No wind100%30.42 "Hg10 mi
3:20 AM27 °FClear.No wind93%30.42 "Hg10 mi
2:50 AM27 °FClear.No wind100%30.42 "Hg10 mi
2:20 AM27 °FClear.No wind100%30.42 "Hg10 mi
1:50 AM27 °FClear.No wind100%30.42 "Hg10 mi
1:20 AM27 °FClear.No wind100%30.42 "Hg10 mi
12:50 AM28 °FClear.No wind100%30.42 "Hg10 mi
12:20 AM27 °FClear.No wind100%30.42 "Hg10 mi
11:50 PM
Sep 30
28 °FClear.No wind100%30.39 "Hg10 mi
11:20 PM28 °FClear.No wind100%30.39 "Hg10 mi
Weather by CustomWeather, © 2014

See weather overviewHow to use our weather pages